Location: Nairn
(57.5833°N, 3.8667°W)
Time: 16:06:45
(UTC+00:00)

S-56A Canister/Altair - Pass Details

Date: 04 December 2020
Orbit: 633 x 2499 km, 38.9° (Epoch: 19 January)

Event Time Altitude Azimuth Distance (km) Brightness Sun altitude
Rises 16:30:59 0° 195° (SSW) 6,080 12.9 -7.0°
Reaches altitude 10° 16:37:38 10° 177° (S) 4,854 12.0 -7.7°
Maximum altitude 16:43:53 15° 148° (SSE) 4,140 11.2 -8.5°
Drops below altitude 10° 16:49:25 10° 119° (ESE) 4,181 11.0 -9.1°
Enters shadow 16:53:53 - 100° (E) 4,728 11.1 -9.7°
Sets 16:54:17 0° 98° (E) 4,796 - -9.7°
